Location: Cul de Sac
(18.0387°N, 63.0654°W)
Time: 09:34:58
(UTC+00:00)

YAOGAN 1 - Pass Details

Date: 29 October 2020
Orbit: 618 x 620 km, 97.9° (Epoch: 26 November)

Event Time Altitude Azimuth Distance (km) Brightness Sun altitude
Rises 23:34:35 0° 182° (S) 2,882 6.1 -27.3°
Reaches altitude 10° 23:36:52 10° 190° (S) 1,978 5.3 -27.9°
Maximum altitude 23:40:55 40° 260° (W) 915 3.8 -28.8°
Drops below altitude 10° 23:44:58 10° 330° (NNW) 1,983 5.4 -29.8°
Sets 23:47:16 0° 338° (NNW) 2,889 6.2 -30.3°
